GW4732 Weather Reports


time (UTC)temp
C
wind
direction
speed
KPH
gust
KPH
rain 1hr
cm
rain 24hr
cm
rain mn
cm
humidity
%
barometer
mb
20260509201402 20 215 0.0 3.2 0.00 0.00 0.00 48 1010.1
20260509200859 21 102 1.6 3.2 0.00 0.00 0.00 49 1010.1
20260509200359 21 102 3.2 6.4 0.00 0.00 0.00 50 1010.2
20260509195856 21 245 0.0 0.0 0.00 0.00 0.00 48 1010.3
20260509195356 20 246 0.0 1.6 0.00 0.00 0.00 50 1010.3
20260509194851 20 205 4.8 4.8 0.00 0.00 0.00 50 1010.3
20260509194348 20 226 6.4 11.3 0.00 0.00 0.00 53 1010.4
20260509193844 20 208 6.4 9.7 0.00 0.00 0.00 50 1010.4
20260509193343 20 196 11.3 12.9 0.00 0.00 0.00 50 1010.3
20260509192840 21 219 8.0 11.3 0.00 0.00 0.00 50 1010.4
20260509192336 21 122 4.8 9.7 0.00 0.00 0.00 50 1010.6
20260509191831 20 138 9.7 14.5 0.00 0.00 0.00 52 1010.4
20260509191327 21 135 9.7 12.9 0.00 0.00 0.00 53 1010.3
20260509190824 21 220 4.8 6.4 0.00 0.00 0.00 51 1010.3
20260509190321 21 122 12.9 14.5 0.00 0.00 0.00 53 1010.6
20260509185818 21 153 8.0 12.9 0.00 0.00 0.00 55 1010.4
20260509185314 21 133 1.6 9.7 0.00 0.00 0.00 52 1010.6
20260509184812 20 158 9.7 14.5 0.00 0.00 0.00 56 1010.7
20260509184309 20 132 8.0 14.5 0.00 0.00 0.00 53 1010.9
20260509183805 20 219 9.7 14.5 0.00 0.00 0.00 54 1011.0
20260509183300 20 227 8.0 16.1 0.00 0.00 0.00 53 1011.1
20260509182756 20 200 6.4 12.9 0.00 0.00 0.00 58 1011.1
20260509182254 19 155 11.3 24.1 0.00 0.00 0.00 58 1011.2
20260509181751 18 87 6.4 11.3 0.00 0.00 0.00 57 1011.5
20260509181248 18 170 11.3 16.1 0.00 0.00 0.00 57 1011.0
20260509180745 19 139 4.8 12.9 0.00 0.00 0.00 56 1011.2
20260509180242 18 114 4.8 9.7 0.00 0.00 0.00 60 1011.4
20260509175738 18 94 8.0 12.9 0.00 0.00 0.00 59 1011.7
20260509175234 18 128 8.0 12.9 0.00 0.00 0.00 61 1011.8
20260509174730 18 82 6.4 6.4 0.00 0.00 0.00 62 1011.7
20260509174226 17 92 6.4 11.3 0.00 0.00 0.00 63 1012.0
20260509173722 17 81 3.2 3.2 0.00 0.00 0.00 62 1012.1
20260509173218 17 82 4.8 11.3 0.00 0.00 0.00 64 1011.8
20260509172714 17 95 4.8 11.3 0.00 0.00 0.00 62 1012.2
20260509172211 17 95 8.0 9.7 0.00 0.00 0.00 63 1012.4
20260509171706 16 20 4.8 9.7 0.00 0.00 0.00 66 1012.6
20260509171203 17 15 3.2 4.8 0.00 0.00 0.00 64 1012.5
20260509170700 16 93 1.6 6.4 0.00 0.00 0.00 65 1012.6
20260509170156 16 61 6.4 6.4 0.00 0.00 0.00 66 1012.9
20260509165654 16 80 4.8 9.7 0.00 0.00 0.00 65 1012.7
20260509165150 16 80 4.8 6.4 0.00 0.00 0.00 68 1012.6
20260509164646 16 36 4.8 9.7 0.00 0.00 0.00 68 1012.8
20260509164142 16 355 4.8 9.7 0.00 0.00 0.00 67 1012.4
20260509163639 16 26 8.0 11.3 0.00 0.00 0.00 64 1012.5
20260509163135 16 42 8.0 14.5 0.00 0.00 0.00 66 1012.4
20260509162633 16 61 6.4 12.9 0.00 0.00 0.00 66 1012.3
20260509162128 16 72 6.4 11.3 0.00 0.00 0.00 65 1012.1
20260509161625 16 41 11.3 14.5 0.00 0.00 0.00 66 1012.3
20260509161120 16 56 11.3 12.9 0.00 0.00 0.00 65 1012.3
20260509160616 16 31 9.7 12.9 0.00 0.00 0.00 65 1012.5
20260509160111 16 36 4.8 9.7 0.00 0.00 0.00 67 1012.7
20260509155608 16 91 4.8 4.8 0.00 0.00 0.00 66 1012.8
20260509155104 16 46 6.4 11.3 0.00 0.00 0.00 67 1012.9
20260509154600 16 83 3.2 14.5 0.00 0.00 0.00 65 1012.6
20260509154058 16 39 9.7 11.3 0.00 0.00 0.00 64 1012.7
20260509153554 17 98 4.8 9.7 0.00 0.00 0.00 63 1012.9
20260509153052 16 58 0.0 6.4 0.00 0.00 0.00 63 1012.8
20260509152547 16 110 6.4 9.7 0.00 0.00 0.00 63 1012.8
20260509152045 16 111 4.8 9.7 0.00 0.00 0.00 67 1012.7
20260509151541 16 103 9.7 12.9 0.00 0.00 0.00 64 1012.8
20260509151039 16 28 4.8 12.9 0.00 0.00 0.00 66 1012.6
20260509150536 16 104 11.3 12.9 0.00 0.00 0.00 62 1012.9
20260509150035 16 84 6.4 11.3 0.00 0.00 0.00 65 1012.9
20260509145530 16 53 4.8 6.4 0.00 0.00 0.00 64 1012.9
20260509145025 15 73 4.8 9.7 0.00 0.00 0.00 67 1013.2
20260509144522 15 34 3.2 11.3 0.00 0.00 0.00 66 1013.0
20260509144019 15 84 4.8 6.4 0.00 0.00 0.00 65 1013.1
20260509143516 15 103 3.2 4.8 0.00 0.00 0.00 67 1013.2
20260509143014 15 125 3.2 6.4 0.00 0.00 0.00 69 1013.0
20260509142509 15 128 3.2 3.2 0.00 0.00 0.00 70 1013.0
20260509142005 14 128 0.0 3.2 0.00 0.00 0.00 69 1013.1
20260509141502 14 128 1.6 3.2 0.00 0.00 0.00 71 1013.1
20260509140959 13 128 1.6 1.6 0.00 0.00 0.00 70 1013.3
20260509140455 13 128 1.6 4.8 0.00 0.00 0.00 71 1013.1
20260509135953 13 51 3.2 6.4 0.00 0.00 0.00 72 1012.7
20260509135450 13 24 8.0 9.7 0.00 0.00 0.00 73 1012.4
20260509134948 13 60 8.0 11.3 0.00 0.00 0.00 73 1012.4
20260509134445 13 79 3.2 4.8 0.00 0.00 0.00 73 1012.7
20260509133942 13 57 4.8 6.4 0.00 0.00 0.00 73 1012.7
20260509133439 13 106 4.8 4.8 0.00 0.00 0.00 73 1012.7
20260509132937 13 85 6.4 6.4 0.00 0.00 0.00 73 1012.5
20260509132435 13 65 3.2 3.2 0.00 0.00 0.00 74 1012.7
20260509131932 13 80 3.2 4.8 0.00 0.00 0.00 73 1012.7
20260509131429 13 92 3.2 6.4 0.00 0.00 0.00 72 1012.8
20260509130925 13 108 6.4 9.7 0.00 0.00 0.00 72 1012.7
20260509130420 13 91 3.2 4.8 0.00 0.00 0.00 73 1012.9
20260509125918 13 67 1.6 3.2 0.00 0.00 0.00 71 1013.1
20260509125415 13 61 3.2 4.8 0.00 0.00 0.00 71 1012.9
20260509124910 13 41 3.2 4.8 0.00 0.00 0.00 72 1012.8
20260509124408 13 94 3.2 3.2 0.00 0.00 0.00 73 1012.7
20260509123905 13 91 1.6 4.8 0.00 0.00 0.00 73 1012.6
20260509123402 13 13 3.2 3.2 0.00 0.00 0.00 74 1012.7
20260509122858 13 13 1.6 3.2 0.00 0.00 0.00 74 1012.9
20260509122355 13 13 1.6 3.2 0.00 0.00 0.00 73 1012.6
20260509121852 13 12 1.6 1.6 0.00 0.00 0.00 73 1012.9
20260509121349 13 11 3.2 4.8 0.00 0.00 0.00 74 1012.9
20260509120847 13 31 1.6 4.8 0.00 0.00 0.00 74 1012.9
20260509120345 13 29 4.8 6.4 0.00 0.00 0.00 72 1012.9
20260509115842 13 10 3.2 4.8 0.00 0.00 0.00 73 1013.0
20260509115339 13 15 3.2 3.2 0.00 0.00 0.00 72 1012.9
20260509114837 12 15 0.0 0.0 0.00 0.00 0.00 72 1012.9
20260509114336 12 15 0.0 0.0 0.00 0.00 0.00 73 1012.9
20260509113835 12 15 0.0 0.0 0.00 0.00 0.00 71 1012.6
20260509113331 12 15 0.0 0.0 0.00 0.00 0.00 72 1012.7
20260509112828 12 15 3.2 3.2 0.00 0.00 0.00 70 1012.6
20260509112325 12 16 1.6 3.2 0.00 0.00 0.00 71 1012.4
20260509111822 12 15 0.0 1.6 0.00 0.00 0.00 73 1012.5
20260509111319 12 15 0.0 1.6 0.00 0.00 0.00 70 1012.4
20260509110817 12 15 1.6 3.2 0.00 0.00 0.00 71 1012.5
20260509110313 12 19 6.4 9.7 0.00 0.00 0.00 72 1012.6
20260509105811 12 36 0.0 1.6 0.00 0.00 0.00 76 1012.7
20260509105309 11 268 3.2 3.2 0.00 0.00 0.00 79 1012.6
20260509104805 11 267 0.0 1.6 0.00 0.00 0.00 75 1012.6
20260509104302 11 267 1.6 1.6 0.00 0.00 0.00 77 1012.4
20260509103800 12 267 0.0 0.0 0.00 0.00 0.00 77 1012.3
20260509103257 12 268 0.0 0.0 0.00 0.00 0.00 70 1012.1
20260509102755 12 268 0.0 0.0 0.00 0.00 0.00 72 1012.0
20260509102252 12 268 0.0 0.0 0.00 0.00 0.00 69 1012.0
20260509101748 12 268 0.0 0.0 0.00 0.00 0.00 68 1012.1
20260509101244 12 268 0.0 0.0 0.00 0.00 0.00 68 1012.1
20260509100742 12 268 0.0 0.0 0.00 0.00 0.00 68 1012.0
20260509100239 12 268 0.0 1.6 0.00 0.00 0.00 74 1012.0
20260509095736 12 268 1.6 3.2 0.00 0.00 0.00 69 1011.9
20260509095233 12 268 0.0 0.0 0.00 0.00 0.00 69 1012.0
20260509094730 12 268 0.0 0.0 0.00 0.00 0.00 70 1012.0
20260509094227 12 268 0.0 0.0 0.00 0.00 0.00 67 1011.9
20260509093725 12 268 0.0 0.0 0.00 0.00 0.00 68 1011.8
20260509093222 12 267 0.0 1.6 0.00 0.00 0.00 67 1012.1
20260509092720 12 267 0.0 0.0 0.00 0.00 0.00 67 1011.8
20260509092218 12 267 0.0 0.0 0.00 0.00 0.00 67 1011.9
20260509091716 12 267 0.0 0.0 0.00 0.00 0.00 66 1011.9
20260509091211 12 268 0.0 1.6 0.00 0.00 0.00 68 1011.9
20260509090710 12 268 1.6 1.6 0.00 0.00 0.00 68 1011.9
20260509090206 12 268 0.0 1.6 0.00 0.00 0.00 69 1011.8
20260509085704 12 268 0.0 0.0 0.00 0.00 0.00 70 1011.9
20260509085200 12 268 0.0 0.0 0.00 0.00 0.00 68 1012.1
20260509084657 12 267 1.6 1.6 0.00 0.00 0.00 69 1012.0
20260509084154 12 268 0.0 1.6 0.00 0.00 0.00 64 1011.9
20260509083652 13 268 0.0 0.0 0.00 0.00 0.00 64 1011.8
20260509083148 13 267 1.6 3.2 0.00 0.00 0.00 64 1012.0
20260509082645 13 271 1.6 4.8 0.00 0.00 0.00 65 1012.0
20260509082142 13 264 4.8 6.4 0.00 0.00 0.00 64 1012.2
20260509081639 13 202 3.2 6.4 0.00 0.00 0.00 64 1012.0
20260509081136 13 287 1.6 4.8 0.00 0.00 0.00 63 1012.0
20260509080635 13 243 1.6 6.4 0.00 0.00 0.00 63 1012.1
20260509080132 13 217 0.0 6.4 0.00 0.00 0.00 64 1012.1
20260509075630 12 290 1.6 3.2 0.00 0.00 0.00 65 1012.3
20260509075128 12 273 1.6 1.6 0.00 0.00 0.00 66 1012.2
20260509074624 12 212 4.8 4.8 0.00 0.00 0.00 68 1012.1
20260509074120 12 209 4.8 4.8 0.00 0.00 0.00 67 1012.1
20260509073618 12 285 0.0 3.2 0.00 0.00 0.00 64 1012.0
20260509073114 12 286 3.2 3.2 0.00 0.00 0.00 65 1012.1
20260509072611 12 270 1.6 3.2 0.00 0.00 0.00 65 1012.1
20260509072107 12 192 3.2 4.8 0.00 0.00 0.00 66 1012.1
20260509071604 12 273 1.6 4.8 0.00 0.00 0.00 65 1012.2
20260509071101 12 275 1.6 4.8 0.00 0.00 0.00 65 1012.3
20260509070559 12 293 4.8 6.4 0.00 0.00 0.00 66 1012.2
20260509070054 12 271 4.8 6.4 0.00 0.00 0.00 68 1012.3
20260509065550 12 276 3.2 3.2 0.00 0.00 0.00 70 1012.2
20260509065046 12 271 3.2 3.2 0.00 0.00 0.00 70 1012.2
20260509064544 12 236 0.0 3.2 0.00 0.00 0.00 68 1012.4
20260509064042 12 280 0.0 3.2 0.00 0.00 0.00 68 1012.3
20260509063537 12 280 1.6 3.2 0.00 0.00 0.00 68 1012.4
20260509063035 12 281 1.6 3.2 0.00 0.00 0.00 66 1012.5
20260509062532 12 224 1.6 3.2 0.00 0.00 0.00 65 1012.5
20260509062030 12 222 0.0 3.2 0.00 0.00 0.00 64 1012.5
20260509061526 13 268 0.0 3.2 0.00 0.00 0.00 61 1012.6
20260509061024 13 281 3.2 3.2 0.00 0.00 0.00 60 1012.6
20260509060521 13 285 0.0 1.6 0.00 0.00 0.00 59 1012.7
20260509060017 13 286 0.0 0.0 0.00 0.00 0.00 60 1012.8
20260509055512 13 286 1.6 1.6 0.00 0.00 0.00 59 1012.5
20260509055009 13 285 1.6 3.2 0.00 0.00 0.00 58 1012.6
20260509054505 13 284 1.6 3.2 0.00 0.00 0.00 59 1012.7
20260509054003 13 291 1.6 4.8 0.00 0.00 0.00 60 1012.6
20260509053501 13 295 4.8 4.8 0.00 0.00 0.00 62 1012.8
20260509052958 12 305 3.2 4.8 0.00 0.00 0.00 62 1012.7
20260509052455 12 289 1.6 3.2 0.00 0.00 0.00 63 1012.6
20260509051954 12 242 3.2 3.2 0.00 0.00 0.00 62 1012.8
20260509051451 13 242 0.0 3.2 0.00 0.00 0.00 61 1012.7
20260509050948 13 241 1.6 3.2 0.00 0.00 0.00 60 1012.8
20260509050444 13 242 1.6 3.2 0.00 0.00 0.00 59 1012.9
20260509045941 12 242 3.2 3.2 0.00 0.00 0.00 61 1012.7
20260509045438 12 242 1.6 3.2 0.00 0.00 0.00 65 1012.7
20260509044935 12 241 3.2 3.2 0.00 0.00 0.00 64 1012.7
20260509044433 12 242 0.0 3.2 0.00 0.00 0.00 61 1012.8
20260509043930 12 242 0.0 1.6 0.00 0.00 0.00 60 1012.9
20260509043426 12 242 0.0 0.0 0.00 0.00 0.00 63 1012.9
20260509042921 12 242 0.0 0.0 0.00 0.00 0.00 66 1013.1
20260509042419 11 242 0.0 0.0 0.00 0.00 0.00 65 1013.0
20260509041915 11 242 0.0 0.0 0.00 0.00 0.00 66 1013.0
20260509041412 11 242 1.6 1.6 0.00 0.00 0.00 68 1013.0
20260509040910 12 242 0.0 1.6 0.00 0.00 0.00 62 1012.9
20260509040408 12 242 0.0 1.6 0.00 0.00 0.00 60 1013.0
20260509035904 12 242 1.6 1.6 0.00 0.00 0.00 61 1012.9
20260509035401 12 242 3.2 3.2 0.00 0.00 0.00 60 1013.0
20260509034857 12 241 0.0 0.0 0.00 0.00 0.00 61 1013.0
20260509034355 12 241 0.0 0.0 0.00 0.00 0.00 64 1013.1
20260509033852 12 241 0.0 0.0 0.00 0.00 0.00 61 1013.1
20260509033349 13 241 0.0 0.0 0.00 0.00 0.00 59 1013.0
20260509032846 13 241 0.0 0.0 0.00 0.00 0.00 57 1013.0
20260509032343 13 241 0.0 0.0 0.00 0.00 0.00 57 1013.2
20260509031842 13 241 0.0 0.0 0.00 0.00 0.00 58 1013.1
20260509031338 13 241 1.6 1.6 0.00 0.00 0.00 58 1012.9
20260509030836 13 241 1.6 1.6 0.00 0.00 0.00 59 1012.9
20260509030334 13 241 0.0 0.0 0.00 0.00 0.00 58 1013.1
20260509025830 12 241 0.0 0.0 0.00 0.00 0.00 59 1013.1
20260509025325 12 241 0.0 0.0 0.00 0.00 0.00 60 1013.1
20260509024821 12 241 0.0 0.0 0.00 0.00 0.00 61 1013.2
20260509024317 12 241 0.0 0.0 0.00 0.00 0.00 60 1013.3
20260509023815 12 241 0.0 0.0 0.00 0.00 0.00 60 1013.3
20260509023312 12 241 0.0 0.0 0.00 0.00 0.00 60 1013.4
20260509022808 13 241 0.0 0.0 0.00 0.00 0.00 60 1013.4
20260509022307 13 241 0.0 0.0 0.00 0.00 0.00 58 1013.5
20260509021802 14 241 0.0 0.0 0.00 0.00 0.00 54 1013.3
20260509021300 14 241 0.0 0.0 0.00 0.00 0.00 53 1013.2
20260509020757 15 241 0.0 0.0 0.00 0.00 0.00 52 1013.4
20260509020255 15 241 0.0 0.0 0.00 0.00 0.00 51 1013.5
20260509015752 15 241 0.0 0.0 0.00 0.00 0.00 52 1013.4
20260509015250 15 241 0.0 1.6 0.00 0.00 0.00 51 1013.2
20260509014746 15 241 1.6 1.6 0.00 0.00 0.00 51 1013.1
20260509014244 15 241 1.6 3.2 0.00 0.00 0.00 50 1013.2
20260509013741 15 241 1.6 3.2 0.00 0.00 0.00 52 1013.5
20260509013236 15 241 1.6 1.6 0.00 0.00 0.00 51 1013.3
20260509012733 15 241 1.6 1.6 0.00 0.00 0.00 51 1013.4
20260509012230 15 241 1.6 1.6 0.00 0.00 0.00 51 1013.2
20260509011727 15 241 0.0 0.0 0.00 0.00 0.00 51 1013.4
20260509011225 15 241 0.0 0.0 0.00 0.00 0.00 50 1013.3
20260509010722 15 241 0.0 0.0 0.00 0.00 0.00 50 1013.2
20260509010218 15 241 0.0 0.0 0.00 0.00 0.00 52 1013.0
20260509005716 16 241 0.0 0.0 0.00 0.00 0.00 50 1013.2
20260509005213 15 241 0.0 0.0 0.00 0.00 0.00 50 1013.2
20260509004707 16 241 0.0 0.0 0.00 0.00 0.00 49 1013.3
20260509004205 16 241 0.0 0.0 0.00 0.00 0.00 48 1013.1
20260509003703 16 241 0.0 0.0 0.00 0.00 0.00 48 1013.1
20260509003201 16 241 0.0 0.0 0.00 0.00 0.00 48 1013.1
20260509002658 16 241 0.0 0.0 0.00 0.00 0.00 48 1013.3
20260509002155 16 241 1.6 3.2 0.00 0.00 0.00 49 1013.1
20260509001653 17 241 1.6 1.6 0.00 0.00 0.00 50 1013.0
20260509001148 17 241 1.6 3.2 0.00 0.00 0.00 48 1013.0
20260509000646 17 241 1.6 3.2 0.00 0.00 0.00 46 1013.0
20260509000143 17 242 3.2 3.2 0.00 0.00 0.00 45 1012.9
20260508235641 17 306 1.6 3.2 0.00 0.00 0.00 46 1012.8
20260508235137 17 307 3.2 3.2 0.00 0.00 0.00 50 1012.7
20260508234634 17 307 1.6 3.2 0.00 0.00 0.00 49 1012.8
20260508234130 17 307 1.6 3.2 0.00 0.00 0.00 50 1012.7
20260508233630 18 8 1.6 1.6 0.00 0.00 0.00 47 1012.7
20260508233127 18 8 0.0 0.0 0.00 0.00 0.00 43 1012.9
20260508232624 18 8 0.0 1.6 0.00 0.00 0.00 41 1012.6
20260508232121 18 8 0.0 1.6 0.00 0.00 0.00 42 1012.7
20260508231619 19 8 1.6 1.6 0.00 0.00 0.00 40 1012.6
20260508231115 18 8 1.6 1.6 0.00 0.00 0.00 39 1012.6
20260508230612 19 27 3.2 4.8 0.00 0.00 0.00 38 1012.7
20260508230108 19 7 3.2 4.8 0.00 0.00 0.00 39 1012.5
20260508225607 19 11 4.8 4.8 0.00 0.00 0.00 38 1012.5
20260508225102 19 19 4.8 4.8 0.00 0.00 0.00 38 1012.5
20260508224601 19 22 3.2 4.8 0.00 0.00 0.00 38 1012.4
20260508224057 18 358 3.2 3.2 0.00 0.00 0.00 41 1012.5
20260508223555 18 358 1.6 1.6 0.00 0.00 0.00 40 1012.6
20260508223052 18 348 1.6 3.2 0.00 0.00 0.00 40 1012.5
20260508222550 19 352 1.6 4.8 0.00 0.00 0.00 40 1012.7
20260508222047 19 334 4.8 9.7 0.00 0.00 0.00 37 1012.5
20260508221543 19 3 0.0 4.8 0.00 0.00 0.00 38 1012.7
20260508221038 20 34 4.8 9.7 0.00 0.00 0.00 36 1012.6
20260508220536 21 333 4.8 6.4 0.00 0.00 0.00 35 1012.6
20260508220032 20 344 6.4 9.7 0.00 0.00 0.00 34 1012.5
20260508215529 20 284 4.8 11.3 0.00 0.00 0.00 36 1012.7
20260508215025 20 284 3.2 6.4 0.00 0.00 0.00 35 1012.6
20260508214523 20 8 6.4 16.1 0.00 0.00 0.00 35 1012.7
20260508214019 20 340 6.4 11.3 0.00 0.00 0.00 35 1012.8
20260508213517 19 358 8.0 11.3 0.00 0.00 0.00 36 1012.9
20260508213012 19 18 6.4 9.7 0.00 0.00 0.00 35 1012.8
20260508212509 19 315 4.8 9.7 0.00 0.00 0.00 35 1012.7
20260508212006 19 338 6.4 11.3 0.00 0.00 0.00 37 1012.8
20260508211501 19 335 4.8 11.3 0.00 0.00 0.00 37 1012.8
20260508210958 19 312 8.0 11.3 0.00 0.00 0.00 37 1012.8
20260508210454 19 325 6.4 9.7 0.00 0.00 0.00 34 1012.8
20260508205950 19 5 4.8 12.9 0.00 0.00 0.00 35 1012.6
20260508205448 19 346 4.8 11.3 0.00 0.00 0.00 37 1012.8
20260508204944 20 337 9.7 17.7 0.00 0.00 0.00 35 1012.9
20260508204442 20 338 8.0 17.7 0.00 0.00 0.00 37 1012.9
20260508203937 20 357 6.4 6.4 0.00 0.00 0.00 35 1012.9
20260508203433 20 22 3.2 9.7 0.00 0.00 0.00 33 1013.0
20260508202929 20 242 8.0 11.3 0.00 0.00 0.00 31 1012.9
20260508202427 20 12 3.2 6.4 0.00 0.00 0.00 32 1012.9
20260508201923 21 341 14.5 17.7 0.00 0.00 0.00 33 1012.9